Tracking 29892 objects as of 21-Nov-2024
HD Live streaming from Space Station
objects crossing your sky now

OPS 6392 (FLTSATCOM 2)

Track OPS 6392 (FLTSATCOM 2) now!
OPS 6392 (FLTSATCOM 2) is classified as:


NORAD ID: 11353
Int'l Code: 1979-038A
Perigee: 36,230.1 km
Apogee: 36,341.2 km
Inclination: 9.0 °
Period: 1,461.3 minutes
Semi major axis: 42656 km
RCS: 5.8553 m2 (large)
Launch date: May 4, 1979
Source: United States (US)
Launch site: AIR FORCE EASTERN TEST RANGE (AFETR)
Your satellite tracking list
Your tracking list is empty




NASA's NSSDC Master Catalog

Two Line Element Set (TLE):
1 11353U 79038A   24325.52147194  .00000021  00000-0  00000+0 0  9991
2 11353   8.9916 306.6942 0013016  65.5070 295.3518  0.98542267164728
Source of the keplerian elements: AFSPC